Year,Month,Day,Hour,Minute,Value (Times are PST for temperature in C)
2022,10,16,00,00,12.80
2022,10,16,00,01,12.80
2022,10,16,00,02,12.80
2022,10,16,00,03,12.80
2022,10,16,00,04,12.80
2022,10,16,00,05,12.80
2022,10,16,00,06,12.70
2022,10,16,00,07,12.70
2022,10,16,00,08,12.70
2022,10,16,00,09,12.70
2022,10,16,00,10,12.60
2022,10,16,00,11,12.60
2022,10,16,00,12,12.60
2022,10,16,00,13,12.60
2022,10,16,00,14,12.60
2022,10,16,00,15,12.50
2022,10,16,00,16,12.50
2022,10,16,00,17,12.50
2022,10,16,00,18,12.50
2022,10,16,00,19,12.50
2022,10,16,00,20,12.50
2022,10,16,00,21,12.50
2022,10,16,00,22,12.50
2022,10,16,00,23,12.50
2022,10,16,00,24,12.50
2022,10,16,00,25,12.50
2022,10,16,00,26,12.40
2022,10,16,00,27,12.40
2022,10,16,00,28,12.40
2022,10,16,00,29,12.40
2022,10,16,00,30,12.40
2022,10,16,00,31,12.40
2022,10,16,00,32,12.40
2022,10,16,00,33,12.40
2022,10,16,00,34,12.40
2022,10,16,00,35,12.40
2022,10,16,00,36,12.40
2022,10,16,00,37,12.40
2022,10,16,00,38,12.40
2022,10,16,00,39,12.40
2022,10,16,00,40,12.40
2022,10,16,00,41,12.40
2022,10,16,00,42,12.40
2022,10,16,00,43,12.40
2022,10,16,00,44,12.40
2022,10,16,00,45,12.50
2022,10,16,00,46,12.50
2022,10,16,00,47,12.50
2022,10,16,00,48,12.40
2022,10,16,00,49,12.40
2022,10,16,00,50,12.40
2022,10,16,00,51,12.40
2022,10,16,00,52,12.40
2022,10,16,00,53,12.40
2022,10,16,00,54,12.40
2022,10,16,00,55,12.40
2022,10,16,00,56,12.40
2022,10,16,00,57,12.40
2022,10,16,00,58,12.40
2022,10,16,00,59,12.40
2022,10,16,01,00,12.30
2022,10,16,01,01,12.30
2022,10,16,01,02,12.30
2022,10,16,01,03,12.30
2022,10,16,01,04,12.30
2022,10,16,01,05,12.30
2022,10,16,01,06,12.30
2022,10,16,01,07,12.30
2022,10,16,01,08,12.30
2022,10,16,01,09,12.30
2022,10,16,01,10,12.30
2022,10,16,01,11,12.30
2022,10,16,01,12,12.30
2022,10,16,01,13,12.30
2022,10,16,01,14,12.30
2022,10,16,01,15,12.30
2022,10,16,01,16,12.30
2022,10,16,01,17,12.30
2022,10,16,01,18,12.30
2022,10,16,01,19,12.30
2022,10,16,01,20,12.30
2022,10,16,01,21,12.30
2022,10,16,01,22,12.30
2022,10,16,01,23,12.30
2022,10,16,01,24,12.30
2022,10,16,01,25,12.30
2022,10,16,01,26,12.30
2022,10,16,01,27,12.30
2022,10,16,01,28,12.30
2022,10,16,01,29,12.30
2022,10,16,01,30,12.30
2022,10,16,01,31,12.30
2022,10,16,01,32,12.30
2022,10,16,01,33,12.30
2022,10,16,01,34,12.30
2022,10,16,01,35,12.30
2022,10,16,01,36,12.30
2022,10,16,01,37,12.30
2022,10,16,01,38,12.30
2022,10,16,01,39,12.30
2022,10,16,01,40,12.30
2022,10,16,01,41,12.30
2022,10,16,01,42,12.30
2022,10,16,01,43,12.30
2022,10,16,01,44,12.30
2022,10,16,01,45,12.30
2022,10,16,01,46,12.30
2022,10,16,01,47,12.30
2022,10,16,01,48,12.30
2022,10,16,01,49,12.30
2022,10,16,01,50,12.30
2022,10,16,01,51,12.30
2022,10,16,01,52,12.30
2022,10,16,01,53,12.30
2022,10,16,01,54,12.30
2022,10,16,01,55,12.20
2022,10,16,01,56,12.20
2022,10,16,01,57,12.20
2022,10,16,01,58,12.20
2022,10,16,01,59,12.20
2022,10,16,02,00,12.20
2022,10,16,02,01,12.20
2022,10,16,02,02,12.20
2022,10,16,02,03,12.20
2022,10,16,02,04,12.20
2022,10,16,02,05,12.10
2022,10,16,02,06,12.10
2022,10,16,02,07,12.10
2022,10,16,02,08,12.10
2022,10,16,02,09,12.10
2022,10,16,02,10,12.10
2022,10,16,02,11,12.00
2022,10,16,02,12,12.00
2022,10,16,02,13,12.00
2022,10,16,02,14,12.00
2022,10,16,02,15,12.00
2022,10,16,02,16,12.00
2022,10,16,02,17,12.00
2022,10,16,02,18,12.00
2022,10,16,02,19,12.00
2022,10,16,02,20,12.00
2022,10,16,02,21,12.00
2022,10,16,02,22,12.00
2022,10,16,02,23,12.00
2022,10,16,02,24,12.00
2022,10,16,02,25,12.00
2022,10,16,02,26,12.00
2022,10,16,02,27,12.00
2022,10,16,02,28,12.00
2022,10,16,02,29,12.00
2022,10,16,02,30,12.00
2022,10,16,02,31,12.00
2022,10,16,02,32,12.00
2022,10,16,02,33,12.00
2022,10,16,02,34,11.90
2022,10,16,02,35,11.90
2022,10,16,02,36,11.90
2022,10,16,02,37,11.80
2022,10,16,02,38,11.80
2022,10,16,02,39,11.80
2022,10,16,02,40,11.80
2022,10,16,02,41,11.80
2022,10,16,02,42,11.80
2022,10,16,02,43,11.80
2022,10,16,02,44,11.80
2022,10,16,02,45,11.80
2022,10,16,02,46,11.80
2022,10,16,02,47,11.80
2022,10,16,02,48,11.80
2022,10,16,02,49,11.80
2022,10,16,02,50,11.80
2022,10,16,02,51,11.80
2022,10,16,02,52,11.80
2022,10,16,02,53,11.80
2022,10,16,02,54,11.80
2022,10,16,02,55,11.80
2022,10,16,02,56,11.80
2022,10,16,02,57,11.80
2022,10,16,02,58,11.80
2022,10,16,02,59,11.80
2022,10,16,03,00,11.80
2022,10,16,03,01,11.80
2022,10,16,03,02,11.80
2022,10,16,03,03,11.80
2022,10,16,03,04,11.80
2022,10,16,03,05,11.80
2022,10,16,03,06,11.80
2022,10,16,03,07,11.80
2022,10,16,03,08,11.80
2022,10,16,03,09,11.80
2022,10,16,03,10,11.80
2022,10,16,03,11,11.80
2022,10,16,03,12,11.80
2022,10,16,03,13,11.80
2022,10,16,03,14,11.80
2022,10,16,03,15,11.70
2022,10,16,03,16,11.70
2022,10,16,03,17,11.60
2022,10,16,03,18,11.60
2022,10,16,03,19,11.60
2022,10,16,03,20,11.60
2022,10,16,03,21,11.60
2022,10,16,03,22,11.50
2022,10,16,03,23,11.40
2022,10,16,03,24,11.40
2022,10,16,03,25,11.40
2022,10,16,03,26,11.50
2022,10,16,03,27,11.40
2022,10,16,03,28,11.40
2022,10,16,03,29,11.40
2022,10,16,03,30,11.50
2022,10,16,03,31,11.60
2022,10,16,03,32,11.60
2022,10,16,03,33,11.60
2022,10,16,03,34,11.60
2022,10,16,03,35,11.60
2022,10,16,03,36,11.60
2022,10,16,03,37,11.60
2022,10,16,03,38,11.60
2022,10,16,03,39,11.60
2022,10,16,03,40,11.60
2022,10,16,03,41,11.60
2022,10,16,03,42,11.60
2022,10,16,03,43,11.60
2022,10,16,03,44,11.60
2022,10,16,03,45,11.60
2022,10,16,03,46,11.70
2022,10,16,03,47,11.70
2022,10,16,03,48,11.70
2022,10,16,03,49,11.70
2022,10,16,03,50,11.70
2022,10,16,03,51,11.70
2022,10,16,03,52,11.70
2022,10,16,03,53,11.70
2022,10,16,03,54,11.70
2022,10,16,03,55,11.70
2022,10,16,03,56,11.70
2022,10,16,03,57,11.70
2022,10,16,03,58,11.70
2022,10,16,03,59,11.60
2022,10,16,04,00,11.60
2022,10,16,04,01,11.70
2022,10,16,04,02,11.60
2022,10,16,04,03,11.60
2022,10,16,04,04,11.60
2022,10,16,04,05,11.60
2022,10,16,04,06,11.60
2022,10,16,04,07,11.60
2022,10,16,04,08,11.60
2022,10,16,04,09,11.60
2022,10,16,04,10,11.60
2022,10,16,04,11,11.60
2022,10,16,04,12,11.60
2022,10,16,04,13,11.60
2022,10,16,04,14,11.60
2022,10,16,04,15,11.60
2022,10,16,04,16,11.60
2022,10,16,04,17,11.60
2022,10,16,04,18,11.60
2022,10,16,04,19,11.60
2022,10,16,04,20,11.60
2022,10,16,04,21,11.60
2022,10,16,04,22,11.60
2022,10,16,04,23,11.60
2022,10,16,04,24,11.60
2022,10,16,04,25,11.60
2022,10,16,04,26,11.60
2022,10,16,04,27,11.60
2022,10,16,04,28,11.60
2022,10,16,04,29,11.60
2022,10,16,04,30,11.60
2022,10,16,04,31,11.60
2022,10,16,04,32,11.60
2022,10,16,04,33,11.60
2022,10,16,04,34,11.60
2022,10,16,04,35,11.60
2022,10,16,04,36,11.50
2022,10,16,04,37,11.40
2022,10,16,04,38,11.40
2022,10,16,04,39,11.40
2022,10,16,04,40,11.40
2022,10,16,04,41,11.40
2022,10,16,04,42,11.40
2022,10,16,04,43,11.40
2022,10,16,04,44,11.40
2022,10,16,04,45,11.40
2022,10,16,04,46,11.40
2022,10,16,04,47,11.40
2022,10,16,04,48,11.40
2022,10,16,04,49,11.40
2022,10,16,04,50,11.40
2022,10,16,04,51,11.50
2022,10,16,04,52,11.60
2022,10,16,04,53,11.60
2022,10,16,04,54,11.60
2022,10,16,04,55,11.60
2022,10,16,04,56,11.60
2022,10,16,04,57,11.70
2022,10,16,04,58,11.80
2022,10,16,04,59,11.80
2022,10,16,05,00,11.90
2022,10,16,05,01,12.00
2022,10,16,05,02,12.00
2022,10,16,05,03,12.00
2022,10,16,05,04,12.10
2022,10,16,05,05,12.10
2022,10,16,05,06,12.10
2022,10,16,05,07,12.10
2022,10,16,05,08,12.00
2022,10,16,05,09,12.00
2022,10,16,05,10,11.90
2022,10,16,05,11,11.90
2022,10,16,05,12,11.90
2022,10,16,05,13,11.90
2022,10,16,05,14,11.90
2022,10,16,05,15,11.90
2022,10,16,05,16,11.90
2022,10,16,05,17,11.90
2022,10,16,05,18,12.00
2022,10,16,05,19,11.90
2022,10,16,05,20,12.00
2022,10,16,05,21,12.00
2022,10,16,05,22,12.10
2022,10,16,05,23,12.10
2022,10,16,05,24,12.20
2022,10,16,05,25,12.20
2022,10,16,05,26,12.30
2022,10,16,05,27,12.30
2022,10,16,05,28,12.30
2022,10,16,05,29,12.30
2022,10,16,05,30,12.30
2022,10,16,05,31,12.30
2022,10,16,05,32,12.30
2022,10,16,05,33,12.30
2022,10,16,05,34,12.30
2022,10,16,05,35,12.30
2022,10,16,05,36,12.30
2022,10,16,05,37,12.30
2022,10,16,05,38,12.30
2022,10,16,05,39,12.30
2022,10,16,05,40,12.30
2022,10,16,05,41,12.30
2022,10,16,05,42,12.30
2022,10,16,05,43,12.30
2022,10,16,05,44,12.30
2022,10,16,05,45,12.30
2022,10,16,05,46,12.30
2022,10,16,05,47,12.20
2022,10,16,05,48,12.20
2022,10,16,05,49,12.20
2022,10,16,05,50,12.20
2022,10,16,05,51,12.20
2022,10,16,05,52,12.20
2022,10,16,05,53,12.20
2022,10,16,05,54,12.20
2022,10,16,05,55,12.20
2022,10,16,05,56,12.20
2022,10,16,05,57,12.10
2022,10,16,05,58,12.10
2022,10,16,05,59,12.10
2022,10,16,06,00,12.10
2022,10,16,06,01,12.10
2022,10,16,06,02,12.10
2022,10,16,06,03,12.00
2022,10,16,06,04,12.00
2022,10,16,06,05,12.00
2022,10,16,06,06,11.90
2022,10,16,06,07,11.90
2022,10,16,06,08,11.90
2022,10,16,06,09,11.90
2022,10,16,06,10,12.00
2022,10,16,06,11,12.00
2022,10,16,06,12,12.00
2022,10,16,06,13,12.00
2022,10,16,06,14,12.10
2022,10,16,06,15,12.10
2022,10,16,06,16,12.10
2022,10,16,06,17,12.20
2022,10,16,06,18,12.20
2022,10,16,06,19,12.20
2022,10,16,06,20,12.20
2022,10,16,06,21,12.30
2022,10,16,06,22,12.30
2022,10,16,06,23,12.30
2022,10,16,06,24,12.30
2022,10,16,06,25,12.30
2022,10,16,06,26,12.30
2022,10,16,06,27,12.30
2022,10,16,06,28,12.30
2022,10,16,06,29,12.30
2022,10,16,06,30,12.30
2022,10,16,06,31,12.30
2022,10,16,06,32,12.30
2022,10,16,06,33,12.30
2022,10,16,06,34,12.30
2022,10,16,06,35,12.30
2022,10,16,06,36,12.30
2022,10,16,06,37,12.30
2022,10,16,06,38,12.30
2022,10,16,06,39,12.30
2022,10,16,06,40,12.30
2022,10,16,06,41,12.30
2022,10,16,06,42,12.30
2022,10,16,06,43,12.20
2022,10,16,06,44,12.20
2022,10,16,06,45,12.20
2022,10,16,06,46,12.20
2022,10,16,06,47,12.10
2022,10,16,06,48,12.10
2022,10,16,06,49,12.00
2022,10,16,06,50,12.00
2022,10,16,06,51,11.90
2022,10,16,06,52,11.90
2022,10,16,06,53,11.90
2022,10,16,06,54,11.90
2022,10,16,06,55,11.90
2022,10,16,06,56,11.90
2022,10,16,06,57,11.80
2022,10,16,06,58,11.80
2022,10,16,06,59,11.80
2022,10,16,07,00,11.80
2022,10,16,07,01,11.80
2022,10,16,07,02,11.80
2022,10,16,07,03,11.80
2022,10,16,07,04,11.80
2022,10,16,07,05,11.80
2022,10,16,07,06,11.80
2022,10,16,07,07,11.80
2022,10,16,07,08,11.80
2022,10,16,07,09,11.80
2022,10,16,07,10,11.80
2022,10,16,07,11,11.80
2022,10,16,07,12,11.80
2022,10,16,07,13,11.80
2022,10,16,07,14,11.80
2022,10,16,07,15,11.80
2022,10,16,07,16,11.80
2022,10,16,07,17,11.80
2022,10,16,07,18,11.80
2022,10,16,07,19,11.80
2022,10,16,07,20,11.80
2022,10,16,07,21,11.80
2022,10,16,07,22,11.80
2022,10,16,07,23,11.80
2022,10,16,07,24,11.80
2022,10,16,07,25,11.80
2022,10,16,07,26,11.80
2022,10,16,07,27,11.70
2022,10,16,07,28,11.70
2022,10,16,07,29,11.70
2022,10,16,07,30,11.70
2022,10,16,07,31,11.70
2022,10,16,07,32,11.70
2022,10,16,07,33,11.70
2022,10,16,07,34,11.70
2022,10,16,07,35,11.70
2022,10,16,07,36,11.70
2022,10,16,07,37,11.80
2022,10,16,07,38,11.80
2022,10,16,07,39,11.80
2022,10,16,07,40,11.90
2022,10,16,07,41,11.90
2022,10,16,07,42,11.90
2022,10,16,07,43,12.00
2022,10,16,07,44,12.00
2022,10,16,07,45,12.00
2022,10,16,07,46,12.10
2022,10,16,07,47,12.10
2022,10,16,07,48,12.10
2022,10,16,07,49,12.20
2022,10,16,07,50,12.20
2022,10,16,07,51,12.20
2022,10,16,07,52,12.30
2022,10,16,07,53,12.30
2022,10,16,07,54,12.30
2022,10,16,07,55,12.30
2022,10,16,07,56,12.30
2022,10,16,07,57,12.30
2022,10,16,07,58,12.30
2022,10,16,07,59,12.40
2022,10,16,08,00,12.40
2022,10,16,08,01,12.40
2022,10,16,08,02,12.40
2022,10,16,08,03,12.40
2022,10,16,08,04,12.50
2022,10,16,08,05,12.50
2022,10,16,08,06,12.50
2022,10,16,08,07,12.50
2022,10,16,08,08,12.50
2022,10,16,08,09,12.50
2022,10,16,08,10,12.60
2022,10,16,08,11,12.60
2022,10,16,08,12,12.70
2022,10,16,08,13,12.70
2022,10,16,08,14,12.80
2022,10,16,08,15,12.80
2022,10,16,08,16,12.80
2022,10,16,08,17,12.90
2022,10,16,08,18,12.90
2022,10,16,08,19,13.00
2022,10,16,08,20,13.00
2022,10,16,08,21,13.10
2022,10,16,08,22,13.10
2022,10,16,08,23,13.10
2022,10,16,08,24,13.20
2022,10,16,08,25,13.20
2022,10,16,08,26,13.20
2022,10,16,08,27,13.20
2022,10,16,08,28,13.30
2022,10,16,08,29,13.30
2022,10,16,08,30,13.30
2022,10,16,08,31,13.40
2022,10,16,08,32,13.50
2022,10,16,08,33,13.50
2022,10,16,08,34,13.70
2022,10,16,08,35,13.80
2022,10,16,08,36,13.90
2022,10,16,08,37,14.00
2022,10,16,08,38,14.00
2022,10,16,08,39,14.20
2022,10,16,08,40,14.30
2022,10,16,08,41,14.50
2022,10,16,08,42,14.70
2022,10,16,08,43,14.80
2022,10,16,08,44,14.90
2022,10,16,08,45,15.00
2022,10,16,08,46,15.00
2022,10,16,08,47,15.00
2022,10,16,08,48,15.00
2022,10,16,08,49,15.00
2022,10,16,08,50,15.10
2022,10,16,08,51,15.10
2022,10,16,08,52,15.10
2022,10,16,08,53,15.20
2022,10,16,08,54,15.30
2022,10,16,08,55,15.40
2022,10,16,08,56,15.60
2022,10,16,08,57,15.90
2022,10,16,08,58,16.30
2022,10,16,08,59,16.70
2022,10,16,09,00,16.90
2022,10,16,09,01,17.20
2022,10,16,09,02,17.50
2022,10,16,09,03,17.80
2022,10,16,09,04,18.10
2022,10,16,09,05,18.30
2022,10,16,09,06,18.50
2022,10,16,09,07,18.70
2022,10,16,09,08,18.90
2022,10,16,09,09,19.00
2022,10,16,09,10,19.10
2022,10,16,09,11,19.20
2022,10,16,09,12,19.30
2022,10,16,09,13,19.40
2022,10,16,09,14,19.50
2022,10,16,09,15,19.60
2022,10,16,09,16,19.60
2022,10,16,09,17,19.70
2022,10,16,09,18,19.70
2022,10,16,09,19,19.70
2022,10,16,09,20,19.80
2022,10,16,09,21,19.90
2022,10,16,09,22,19.90
2022,10,16,09,23,19.90
2022,10,16,09,24,19.90
2022,10,16,09,25,20.10
2022,10,16,09,26,20.10
2022,10,16,09,27,20.20
2022,10,16,09,28,20.20
2022,10,16,09,29,20.20
2022,10,16,09,30,20.20
2022,10,16,09,31,20.20
2022,10,16,09,32,20.20
2022,10,16,09,33,20.20
2022,10,16,09,34,20.20
2022,10,16,09,35,20.30
2022,10,16,09,36,20.30
2022,10,16,09,37,20.30
2022,10,16,09,38,20.30
2022,10,16,09,39,20.30
2022,10,16,09,40,20.40
2022,10,16,09,41,20.40
2022,10,16,09,42,20.40
2022,10,16,09,43,20.50
2022,10,16,09,44,20.50
2022,10,16,09,45,20.50
2022,10,16,09,46,20.50
2022,10,16,09,47,20.60
2022,10,16,09,48,20.60
2022,10,16,09,49,20.60
2022,10,16,09,50,20.70
2022,10,16,09,51,20.70
2022,10,16,09,52,20.70
2022,10,16,09,53,20.80
2022,10,16,09,54,20.80
2022,10,16,09,55,20.90
2022,10,16,09,56,20.90
2022,10,16,09,57,20.90
2022,10,16,09,58,20.90
2022,10,16,09,59,21.00
2022,10,16,10,00,21.00
2022,10,16,10,01,21.00
2022,10,16,10,02,21.10
2022,10,16,10,03,21.10
2022,10,16,10,04,21.10
2022,10,16,10,05,21.20
2022,10,16,10,06,21.20
2022,10,16,10,07,21.20
2022,10,16,10,08,21.30
2022,10,16,10,09,21.30
2022,10,16,10,10,21.30
2022,10,16,10,11,21.30
2022,10,16,10,12,21.30
2022,10,16,10,13,21.30
2022,10,16,10,14,21.30
2022,10,16,10,15,21.30
2022,10,16,10,16,21.30
2022,10,16,10,17,21.40
2022,10,16,10,18,21.40
2022,10,16,10,19,21.40
2022,10,16,10,20,21.50
2022,10,16,10,21,21.60
2022,10,16,10,22,21.60
2022,10,16,10,23,21.60
2022,10,16,10,24,21.60
2022,10,16,10,25,21.60
2022,10,16,10,26,21.60
2022,10,16,10,27,21.60
2022,10,16,10,28,21.60
2022,10,16,10,29,21.60
2022,10,16,10,30,21.60
2022,10,16,10,31,21.60
2022,10,16,10,32,21.60
2022,10,16,10,33,21.60
2022,10,16,10,34,21.60
2022,10,16,10,35,21.60
2022,10,16,10,36,21.60
2022,10,16,10,37,21.70
2022,10,16,10,38,21.70
2022,10,16,10,39,21.70
2022,10,16,10,40,21.70
2022,10,16,10,41,21.80
2022,10,16,10,42,21.80
2022,10,16,10,43,21.80
2022,10,16,10,44,21.80
2022,10,16,10,45,21.90
2022,10,16,10,46,21.90
2022,10,16,10,47,21.90
2022,10,16,10,48,21.90
2022,10,16,10,49,22.00
2022,10,16,10,50,22.00
2022,10,16,10,51,22.00
2022,10,16,10,52,22.10
2022,10,16,10,53,22.10
2022,10,16,10,54,22.10
2022,10,16,10,55,22.10
2022,10,16,10,56,22.20
2022,10,16,10,57,22.20
2022,10,16,10,58,22.20
2022,10,16,10,59,22.20
2022,10,16,11,00,22.30
2022,10,16,11,01,22.30
2022,10,16,11,02,22.30
2022,10,16,11,03,22.30
2022,10,16,11,04,22.40
2022,10,16,11,05,22.40
2022,10,16,11,06,22.40
2022,10,16,11,07,22.50
2022,10,16,11,08,22.50
2022,10,16,11,09,22.50
2022,10,16,11,10,22.60
2022,10,16,11,11,22.60
2022,10,16,11,12,22.60
2022,10,16,11,13,22.70
2022,10,16,11,14,22.70
2022,10,16,11,15,22.70
2022,10,16,11,16,22.80
2022,10,16,11,17,22.80
2022,10,16,11,18,22.80
2022,10,16,11,19,22.80
2022,10,16,11,20,22.90
2022,10,16,11,21,22.90
2022,10,16,11,22,22.90
2022,10,16,11,23,22.90
2022,10,16,11,24,22.90
2022,10,16,11,25,22.90
2022,10,16,11,26,23.00
2022,10,16,11,27,23.10
2022,10,16,11,28,23.10
2022,10,16,11,29,23.10
2022,10,16,11,30,23.10
2022,10,16,11,31,23.20
2022,10,16,11,32,23.20
2022,10,16,11,33,23.30
2022,10,16,11,34,23.30
2022,10,16,11,35,23.30
2022,10,16,11,36,23.30
2022,10,16,11,37,23.40
2022,10,16,11,38,23.40
2022,10,16,11,39,23.40
2022,10,16,11,40,23.40
2022,10,16,11,41,23.50
2022,10,16,11,42,23.50
2022,10,16,11,43,23.40
2022,10,16,11,44,23.50
2022,10,16,11,45,23.60
2022,10,16,11,46,23.60
2022,10,16,11,47,23.60
2022,10,16,11,48,23.60
2022,10,16,11,49,23.70
2022,10,16,11,50,23.70
2022,10,16,11,51,23.70
2022,10,16,11,52,23.70
2022,10,16,11,53,23.70
2022,10,16,11,54,23.70
2022,10,16,11,55,23.70
2022,10,16,11,56,23.70
2022,10,16,11,57,23.80
2022,10,16,11,58,23.90
2022,10,16,11,59,23.90
2022,10,16,12,00,23.90
2022,10,16,12,01,23.90
2022,10,16,12,02,23.90
2022,10,16,12,03,23.90
2022,10,16,12,04,23.90
2022,10,16,12,05,24.00
2022,10,16,12,06,24.00
2022,10,16,12,07,24.00
2022,10,16,12,08,24.10
2022,10,16,12,09,24.10
2022,10,16,12,10,24.10
2022,10,16,12,11,24.10
2022,10,16,12,12,24.10
2022,10,16,12,13,24.10
2022,10,16,12,14,24.10
2022,10,16,12,15,24.20
2022,10,16,12,16,24.20
2022,10,16,12,17,24.20
2022,10,16,12,18,24.30
2022,10,16,12,19,24.30
2022,10,16,12,20,24.40
2022,10,16,12,21,24.40
2022,10,16,12,22,24.40
2022,10,16,12,23,24.50
2022,10,16,12,24,24.50
2022,10,16,12,25,24.50
2022,10,16,12,26,24.60
2022,10,16,12,27,24.60
2022,10,16,12,28,24.60
2022,10,16,12,29,24.70
2022,10,16,12,30,24.70
2022,10,16,12,31,24.70
2022,10,16,12,32,24.70
2022,10,16,12,33,24.80
2022,10,16,12,34,24.90
2022,10,16,12,35,24.90
2022,10,16,12,36,24.90
2022,10,16,12,37,24.90
2022,10,16,12,38,24.90
2022,10,16,12,39,24.90
2022,10,16,12,40,25.00
2022,10,16,12,41,25.10
2022,10,16,12,42,25.10
2022,10,16,12,43,25.10
2022,10,16,12,44,25.10
2022,10,16,12,45,25.10
2022,10,16,12,46,25.00
2022,10,16,12,47,25.00
2022,10,16,12,48,25.10
2022,10,16,12,49,25.10
2022,10,16,12,50,25.20
2022,10,16,12,51,25.30
2022,10,16,12,52,25.30
2022,10,16,12,53,25.40
2022,10,16,12,54,25.40
2022,10,16,12,55,25.40
2022,10,16,12,56,25.40
2022,10,16,12,57,25.40
2022,10,16,12,58,25.40
2022,10,16,12,59,25.30
2022,10,16,13,00,25.40
2022,10,16,13,01,25.40
2022,10,16,13,02,25.30
2022,10,16,13,03,25.40
2022,10,16,13,04,25.40
2022,10,16,13,05,25.40
2022,10,16,13,06,25.40
2022,10,16,13,07,25.50
2022,10,16,13,08,25.40
2022,10,16,13,09,25.40
2022,10,16,13,10,25.50
2022,10,16,13,11,25.40
2022,10,16,13,12,25.40
2022,10,16,13,13,25.40
2022,10,16,13,14,25.40
2022,10,16,13,15,25.40
2022,10,16,13,16,25.50
2022,10,16,13,17,25.40
2022,10,16,13,18,25.40
2022,10,16,13,19,25.50
2022,10,16,13,20,25.50
2022,10,16,13,21,25.50
2022,10,16,13,22,25.50
2022,10,16,13,23,25.50
2022,10,16,13,24,25.50
2022,10,16,13,25,25.40
2022,10,16,13,26,25.40
2022,10,16,13,27,25.40
2022,10,16,13,28,25.40
2022,10,16,13,29,25.40
2022,10,16,13,30,25.40
2022,10,16,13,31,25.40
2022,10,16,13,32,25.40
2022,10,16,13,33,25.50
2022,10,16,13,34,25.50
2022,10,16,13,35,25.50
2022,10,16,13,36,25.50
2022,10,16,13,37,25.50
2022,10,16,13,38,25.50
2022,10,16,13,39,25.50
2022,10,16,13,40,25.60
2022,10,16,13,41,25.70
2022,10,16,13,42,25.80
2022,10,16,13,43,25.80
2022,10,16,13,44,25.80
2022,10,16,13,45,25.80
2022,10,16,13,46,25.80
2022,10,16,13,47,25.80
2022,10,16,13,48,25.80
2022,10,16,13,49,25.90
2022,10,16,13,50,25.90
2022,10,16,13,51,25.90
2022,10,16,13,52,26.00
2022,10,16,13,53,26.00
2022,10,16,13,54,26.00
2022,10,16,13,55,26.00
2022,10,16,13,56,26.00
2022,10,16,13,57,26.00
2022,10,16,13,58,26.00
2022,10,16,13,59,26.00
2022,10,16,14,00,26.10
2022,10,16,14,01,26.10
2022,10,16,14,02,26.20
2022,10,16,14,03,26.20
2022,10,16,14,04,26.20
2022,10,16,14,05,26.20
2022,10,16,14,06,26.20
2022,10,16,14,07,26.20
2022,10,16,14,08,26.20
2022,10,16,14,09,26.20
2022,10,16,14,10,26.20
2022,10,16,14,11,26.30
2022,10,16,14,12,26.30
2022,10,16,14,13,26.30
2022,10,16,14,14,26.40
2022,10,16,14,15,26.30
2022,10,16,14,16,26.30
2022,10,16,14,17,26.40
2022,10,16,14,18,26.40
2022,10,16,14,19,26.50
2022,10,16,14,20,26.60
2022,10,16,14,21,26.60
2022,10,16,14,22,26.60
2022,10,16,14,23,26.50
2022,10,16,14,24,26.40
2022,10,16,14,25,26.40
2022,10,16,14,26,26.40
2022,10,16,14,27,26.50
2022,10,16,14,28,26.60
2022,10,16,14,29,26.60
2022,10,16,14,30,26.60
2022,10,16,14,31,26.60
2022,10,16,14,32,26.60
2022,10,16,14,33,26.70
2022,10,16,14,34,26.70
2022,10,16,14,35,26.70
2022,10,16,14,36,26.80
2022,10,16,14,37,26.80
2022,10,16,14,38,26.80
2022,10,16,14,39,26.80
2022,10,16,14,40,26.80
2022,10,16,14,41,26.70
2022,10,16,14,42,26.70
2022,10,16,14,43,26.70
2022,10,16,14,44,26.70
2022,10,16,14,45,26.70
2022,10,16,14,46,26.70
2022,10,16,14,47,26.70
2022,10,16,14,48,26.70
2022,10,16,14,49,26.70
2022,10,16,14,50,26.80
2022,10,16,14,51,26.80
2022,10,16,14,52,26.80
2022,10,16,14,53,26.80
2022,10,16,14,54,26.80
2022,10,16,14,55,26.80
2022,10,16,14,56,26.80
2022,10,16,14,57,26.90
2022,10,16,14,58,26.90
2022,10,16,14,59,26.80
2022,10,16,15,00,26.80
2022,10,16,15,01,26.80
2022,10,16,15,02,26.80
2022,10,16,15,03,26.80
2022,10,16,15,04,26.80
2022,10,16,15,05,26.90
2022,10,16,15,06,26.90
2022,10,16,15,07,26.90
2022,10,16,15,08,26.90
2022,10,16,15,09,26.90
2022,10,16,15,10,26.90
2022,10,16,15,11,27.00
2022,10,16,15,12,26.90
2022,10,16,15,13,26.90
2022,10,16,15,14,26.90
2022,10,16,15,15,26.80
2022,10,16,15,16,26.80
2022,10,16,15,17,26.80
2022,10,16,15,18,26.80
2022,10,16,15,19,26.80
2022,10,16,15,20,26.80
2022,10,16,15,21,26.80
2022,10,16,15,22,26.80
2022,10,16,15,23,26.80
2022,10,16,15,24,26.80
2022,10,16,15,25,26.80
2022,10,16,15,26,26.80
2022,10,16,15,27,26.80
2022,10,16,15,28,26.80
2022,10,16,15,29,26.80
2022,10,16,15,30,26.80
2022,10,16,15,31,26.80
2022,10,16,15,32,26.80
2022,10,16,15,33,26.80
2022,10,16,15,34,26.80
2022,10,16,15,35,26.80
2022,10,16,15,36,26.80
2022,10,16,15,37,26.80
2022,10,16,15,38,26.80
2022,10,16,15,39,26.80
2022,10,16,15,40,26.80
2022,10,16,15,41,26.70
2022,10,16,15,42,26.70
2022,10,16,15,43,26.70
2022,10,16,15,44,26.70
2022,10,16,15,45,26.70
2022,10,16,15,46,26.70
2022,10,16,15,47,26.60
2022,10,16,15,48,26.60
2022,10,16,15,49,26.60
2022,10,16,15,50,26.60
2022,10,16,15,51,26.60
2022,10,16,15,52,26.60
2022,10,16,15,53,26.60
2022,10,16,15,54,26.60
2022,10,16,15,55,26.60
2022,10,16,15,56,26.60
2022,10,16,15,57,26.60
2022,10,16,15,58,26.60
2022,10,16,15,59,26.60
2022,10,16,16,00,26.60
2022,10,16,16,01,26.60
2022,10,16,16,02,26.60
2022,10,16,16,03,26.60
2022,10,16,16,04,26.60
2022,10,16,16,05,26.60
2022,10,16,16,06,26.60
2022,10,16,16,07,26.60
2022,10,16,16,08,26.50
2022,10,16,16,09,26.40
2022,10,16,16,10,26.40
2022,10,16,16,11,26.40
2022,10,16,16,12,26.30
2022,10,16,16,13,26.20
2022,10,16,16,14,26.20
2022,10,16,16,15,26.20
2022,10,16,16,16,26.20
2022,10,16,16,17,26.20
2022,10,16,16,18,26.20
2022,10,16,16,19,26.20
2022,10,16,16,20,26.20
2022,10,16,16,21,26.20
2022,10,16,16,22,26.20
2022,10,16,16,23,26.20
2022,10,16,16,24,26.10
2022,10,16,16,25,26.10
2022,10,16,16,26,26.00
2022,10,16,16,27,26.00
2022,10,16,16,28,25.80
2022,10,16,16,29,25.80
2022,10,16,16,30,25.70
2022,10,16,16,31,25.50
2022,10,16,16,32,25.50
2022,10,16,16,33,25.50
2022,10,16,16,34,25.50
2022,10,16,16,35,25.30
2022,10,16,16,36,25.20
2022,10,16,16,37,25.00
2022,10,16,16,38,24.80
2022,10,16,16,39,24.60
2022,10,16,16,40,24.50
2022,10,16,16,41,24.50
2022,10,16,16,42,24.40
2022,10,16,16,43,24.10
2022,10,16,16,44,23.80
2022,10,16,16,45,23.70
2022,10,16,16,46,23.60
2022,10,16,16,47,23.50
2022,10,16,16,48,23.30
2022,10,16,16,49,23.30
2022,10,16,16,50,23.30
2022,10,16,16,51,23.30
2022,10,16,16,52,23.30
2022,10,16,16,53,23.30
2022,10,16,16,54,23.30
2022,10,16,16,55,23.30
2022,10,16,16,56,23.20
2022,10,16,16,57,23.20
2022,10,16,16,58,23.20
2022,10,16,16,59,23.20
2022,10,16,17,00,23.20
2022,10,16,17,01,23.20
2022,10,16,17,02,23.20
2022,10,16,17,03,23.20
2022,10,16,17,04,23.20
2022,10,16,17,05,23.20
2022,10,16,17,06,23.30
2022,10,16,17,07,23.30
2022,10,16,17,08,23.30
2022,10,16,17,09,23.30
2022,10,16,17,10,23.30
2022,10,16,17,11,23.30
2022,10,16,17,12,23.10
2022,10,16,17,13,23.00
2022,10,16,17,14,22.90
2022,10,16,17,15,22.90
2022,10,16,17,16,22.80
2022,10,16,17,17,22.80
2022,10,16,17,18,22.70
2022,10,16,17,19,22.70